Weather observations for the past three days for
Hebbronville, Jim Hogg County Airport
Imperial (Metric)
Date Time (cdt) Wind (mph) Vis. (mi.) Weather Sky Cond. Temperature (ºF) Relative Humidity Wind Chill (°F) Heat Index (°F) Pressure Precipitation (in)
Air Dwpt 6 hour altimeter (in) sea level (mb) 1 hr 3 hr 6 hr
Max. Min.
15 22:15 SE 8 7.00 Rain CLR 83.5 70.7 65% 88 29.86 0.0
15 21:55 SE 13 7.00 Light Rain CLR 84.2 70 62% 89 29.85 0.0
15 21:35 SE 12 7.00 Fair CLR 85.1 69.1 59% 89 29.84 0.0
15 21:15 SE 12 G 18 5.00 Fair with Haze CLR 86.2 67.6 54% 89 29.83 0.0
15 20:55 SE 13 7.00 Fair CLR 87.1 66.4 50% 90 29.83 0.0
15 20:35 SE 10 5.00 Fair with Haze CLR 88 66.4 49% 91 29.83 0.0
15 20:15 SE 16 G 23 4.00 Fair with Haze CLR 89.1 67.3 49% 92 29.82 0.0
15 19:55 SE 17 G 23 5.00 Fair with Haze CLR 90.7 67.6 47% 94 29.81 0.0
15 19:35 SE 15 G 21 5.00 Partly Cloudy with Haze SCT060 92.3 67.6 44% 96 29.81 0.0
15 19:15 SE 16 G 23 5.00 Partly Cloudy with Haze SCT060 93.7 68.4 44% 99 29.8 0.0
15 18:55 SE 14 5.00 Partly Cloudy with Haze SCT055 94.1 69.1 100.4 91.8 44% 100 29.8 0.0
15 18:35 SE 17 G 25 5.00 Partly Cloudy with Haze SCT055 94.3 69.3 44% 100 29.8 0.0
15 18:15 SE 13 G 21 4.00 Fair with Haze CLR 95.9 69.4 42% 102 29.79 0.0
15 17:55 SE 17 G 23 5.00 Partly Cloudy with Haze SCT065 SCT085 96.8 69.8 42% 103 29.79 0.0
15 17:35 SE 17 G 22 7.00 Mostly Cloudy SCT065 SCT075 BKN095 97.3 68.5 39% 103 29.79 0.0
15 17:15 SE 12 5.00 Partly Cloudy with Haze SCT065 SCT095 96.6 67.3 38% 101 29.8 0.0
15 16:55 SE 18 G 22 5.00 Partly Cloudy with Haze SCT065 SCT095 97.7 67.3 37% 102 29.8 0.0
15 16:35 SE 14 5.00 Partly Cloudy with Haze SCT065 SCT085 100.4 66.7 33% 105 29.81 0.0
15 16:15 SE 7 5.00 Mostly Cloudy with Haze SCT065 BKN085 99 66.6 35% 103 29.81 0.0
15 15:55 S 8 5.00 Partly Cloudy with Haze SCT065 SCT095 98.8 66.4 35% 103 29.82 0.0
15 15:35 S 7 5.00 Partly Cloudy with Haze SCT065 SCT095 98.6 66 35% 103 29.83 0.0
15 15:15 S 9 5.00 Partly Cloudy with Haze SCT065 98.6 66.2 35% 103 29.84 0.0
15 14:55 SE 10 7.00 Fair CLR 97.9 66.6 36% 102 29.85 0.0
15 14:35 S 7 10.00 Fair CLR 96.6 65.8 36% 100 29.86 0.0
15 14:15 SE 7 10.00 Partly Cloudy SCT050 SCT080 95.7 67.5 40% 100 29.86 0.0
15 13:55 SE 8 10.00 Partly Cloudy SCT050 SCT070 SCT080 96.3 68.7 41% 102 29.88 0.0
15 13:35 SE 8 10.00 Partly Cloudy SCT050 SCT080 93.7 67.8 43% 98 29.89 0.0
15 13:15 S 9 10.00 Partly Cloudy SCT050 93.4 68.9 45% 99 29.9 0.0
15 12:55 SE 3 10.00 Partly Cloudy SCT050 93 68.2 93.7 75 44% 98 29.91 0.0
15 12:35 SE 8 10.00 Partly Cloudy SCT049 93.6 68.9 45% 99 29.91 0.0
15 12:15 SE 8 G 17 10.00 Partly Cloudy SCT041 SCT047 SCT060 91.4 68.7 47% 96 29.92 0.0
15 11:55 SE 6 10.00 Partly Cloudy SCT042 SCT060 90.9 69.3 49% 96 29.93 0.0
15 11:35 SE 8 10.00 Partly Cloudy SCT036 SCT042 SCT048 90.7 70.2 51% 96 29.93 0.0
15 11:15 SE 7 10.00 Mostly Cloudy BKN037 BKN045 88 71.1 57% 94 29.93 0.0
15 10:55 S 5 7.00 Mostly Cloudy BKN035 BKN045 87.4 71.2 59% 93 29.93 0.0
15 10:35 S 8 G 18 7.00 Partly Cloudy SCT033 88.3 71.2 57% 95 29.93 0.0
15 10:15 S 6 10.00 Partly Cloudy SCT027 86 71.4 62% 92 29.93 0.0
15 09:55 S 6 10.00 Partly Cloudy SCT020 SCT027 86 72.5 64% 93 29.93 0.0
15 09:35 S 8 10.00 Mostly Cloudy SCT019 BKN025 BKN031 84.4 73.4 70% 91 29.94 0.0
15 09:15 S 6 10.00 Mostly Cloudy SCT017 BKN023 83.3 73.8 73% 90 29.93 0.0
15 08:55 S 6 10.00 Partly Cloudy SCT015 82.6 74.1 76% 89 29.93 0.0
15 08:35 S 7 10.00 Fair CLR 81.5 74.3 79% 87 29.93 0.0
15 08:15 S 5 10.00 Fair CLR 79.9 74.3 83% 84 29.93 0.0
15 07:55 SE 3 10.00 Fair CLR 78.6 73.8 85% 82 29.93 0.0
15 07:35 Calm 10.00 Fair CLR 76.8 73.2 89% 78 29.92 0.0
15 07:15 Calm 10.00 Partly Cloudy SCT017 75.2 72.7 92% 74 29.91 0.0
15 06:55 Calm 10.00 Partly Cloudy SCT017 74.8 72.7 79.7 74.8 93% 29.91 0.0
15 06:35 Calm 10.00 Partly Cloudy SCT012 SCT019 74.8 72.5 92% 29.91 0.0
15 06:15 S 3 10.00 Partly Cloudy SCT012 74.8 72.7 93% 29.91 0.0
15 05:55 Calm 10.00 Partly Cloudy SCT017 SCT022 74.8 72.5 92% 29.91 0.0
15 05:35 Calm 10.00 Partly Cloudy SCT015 SCT020 75.2 72.5 91% 74 29.91 0.0
15 05:15 Calm 7.00 Partly Cloudy SCT013 75.2 72.5 91% 74 29.9 0.0
15 04:55 Calm 7.00 Fair CLR 75.4 72.5 91% 75 29.9 0.0
15 04:35 S 3 10.00 Fair CLR 75.9 72.7 90% 76 29.91 0.0
15 04:15 S 3 7.00 Partly Cloudy SCT018 SCT024 76.1 72.7 89% 76 29.91 0.0
15 03:55 S 3 7.00 Partly Cloudy SCT018 SCT085 76.1 72.7 89% 76 29.91 0.0
15 03:35 S 3 7.00 Partly Cloudy SCT018 SCT085 76.3 72.9 89% 77 29.92 0.0
15 03:15 S 3 7.00 Fair CLR 76.6 73 89% 77 29.92 0.0
15 02:55 S 3 10.00 Fair CLR 77.2 73.2 88% 79 29.93 0.0
15 02:35 S 3 10.00 Fair CLR 77.9 73.4 86% 80 29.93 0.0
15 02:15 SE 3 10.00 Fair CLR 78.3 73.4 85% 81 29.93 0.0
15 01:55 SE 5 10.00 Fair CLR 78.3 73.4 85% 81 29.93 0.0
15 01:35 SE 5 10.00 Fair CLR 78.8 73.6 84% 82 29.94 0.0
15 01:15 SE 7 10.00 Fair CLR 79.5 73.4 82% 83 29.94 0.0
15 00:55 SE 7 7.00 Fair CLR 79.9 73.6 94.8 79.9 81% 84 29.94 0.0
15 00:35 SE 7 10.00 Fair CLR 80.6 73.4 79% 85 29.94 0.0
15 00:15 SE 7 7.00 Fair CLR 81 73.4 78% 86 29.94 0.0
14 23:55 SE 9 7.00 Rain CLR 81.5 73.4 77% 87 29.93 0.0
14 23:35 SE 8 7.00 Light Rain CLR 81.9 73.4 76% 87 29.93 0.0
14 23:15 SE 10 5.00 Rain CLR 82.4 73.4 74% 88 29.93 0.0
14 22:55 SE 10 G 16 7.00 Rain CLR 83.1 73.8 73% 90 29.92 0.0
14 22:35 SE 12 7.00 Rain CLR 83.8 73.4 71% 90 29.91 0.0
14 22:15 SE 12 7.00 Light Rain CLR 84.6 71.8 66% 90 29.91 0.0
14 21:55 SE 12 7.00 Rain CLR 85.3 71.2 63% 91 29.9 0.0
14 21:35 SE 10 7.00 Fair CLR 86 70.9 61% 91 29.89 0.0
14 21:15 SE 10 7.00 Fair CLR 87.3 69.1 55% 92 29.89 0.0
14 20:55 SE 12 7.00 Fair CLR 88.2 68.5 52% 92 29.88 0.0
14 20:35 SE 14 G 17 7.00 Fair CLR 89.1 68.5 51% 93 29.87 0.0
14 20:15 SE 16 G 20 5.00 Fair with Haze CLR 90.1 67.6 48% 94 29.87 0.0
14 19:55 SE 13 G 22 5.00 Fair with Haze CLR 91.6 68 46% 96 29.86 0.0
14 19:35 E 16 G 23 5.00 Fair with Haze CLR 92.5 70 48% 98 29.86 0.0
14 19:15 SE 15 7.00 Partly Cloudy SCT055 93.6 70.2 47% 100 29.85 0.0
14 18:55 E 14 7.00 Partly Cloudy SCT070 95.2 70.3 100.4 92.3 45% 102 29.84 0.0
14 18:35 E 15 5.00 Fair with Haze CLR 96.1 69.8 43% 103 29.84 0.0
14 18:15 E 16 G 26 7.00 Fair CLR 96.1 70 43% 103 29.83 0.0
14 17:55 E 12 5.00 Partly Cloudy with Haze SCT075 SCT095 97.2 69.1 40% 103 29.83 0.0
14 17:35 SE 15 G 18 7.00 Partly Cloudy SCT075 SCT090 97.9 68.9 39% 104 29.84 0.0
14 17:15 E 9 7.00 Partly Cloudy SCT075 SCT090 97.9 66.6 36% 102 29.84 0.0
14 16:55 SE 13 G 16 5.00 Fair with Haze CLR 100 65.8 33% 104 29.84 0.0
14 16:35 SE 10 7.00 Partly Cloudy SCT070 SCT090 SCT110 100.4 66.4 33% 105 29.84 0.0
14 16:15 SE 9 7.00 Mostly Cloudy BKN070 99.3 65.5 33% 103 29.85 0.0
14 15:55 SE 6 10.00 Partly Cloudy SCT070 99.3 66.2 34% 104 29.86 0.0
14 15:35 SE 9 7.00 Partly Cloudy SCT065 98.1 65.8 35% 102 29.87 0.0
14 15:15 E 5 10.00 Mostly Cloudy SCT065 BKN090 96.1 66.6 38% 100 29.88 0.0
14 14:55 E 6 10.00 Partly Cloudy SCT080 SCT100 96.8 66.7 37% 101 29.88 0.0
14 14:35 Calm 7.00 Partly Cloudy SCT065 96.3 66.6 38% 100 29.89 0.0
14 14:15 E 5 10.00 Partly Cloudy SCT060 SCT070 96.3 67.3 39% 101 29.9 0.0
14 13:55 SE 9 7.00 Partly Cloudy SCT060 SCT080 96.3 67.8 40% 101 29.91 0.0
14 13:35 SE 9 G 17 5.00 Partly Cloudy with Haze SCT050 SCT080 95.5 68.4 41% 101 29.91 0.0
14 13:15 Calm 5.00 Partly Cloudy with Haze SCT050 SCT060 92.8 68.4 45% 97 29.92 0.0
14 12:55 S 7 10.00 Partly Cloudy SCT050 93.2 68.9 93.2 75 45% 98 29.93 0.0
14 12:35 S 5 10.00 Partly Cloudy SCT048 92.3 69.1 47% 97 29.93 0.0
14 12:15 SE 3 10.00 Partly Cloudy SCT046 91 69.4 49% 96 29.93 0.0
14 11:55 Calm 10.00 Fair CLR 90.7 68.7 49% 95 29.94 0.0
14 11:35 S 3 10.00 Partly Cloudy SCT039 90 69.4 51% 95 29.94 0.0
14 11:15 SE 6 10.00 Partly Cloudy SCT037 88.9 70.3 54% 94 29.95 0.0
14 10:55 SE 8 10.00 Partly Cloudy SCT037 87.6 69.8 56% 92 29.96 0.0
14 10:35 SE 6 10.00 Partly Cloudy SCT032 87.8 70 56% 93 29.96 0.0
14 10:15 SE 5 10.00 Partly Cloudy SCT028 86.9 70.7 59% 92 29.97 0.0
14 09:55 S 5 10.00 Fair CLR 86 70.9 61% 91 29.96 0.0
14 09:35 S 7 10.00 Fair CLR 85.1 72.5 66% 91 29.96 0.0
14 09:15 SE 7 10.00 Fair CLR 83.8 73.9 72% 91 29.96 0.0
14 08:55 SE 7 10.00 Fair CLR 82.9 74.7 76% 90 29.96 0.0
14 08:35 SE 7 7.00 Fair CLR 81.5 74.5 79% 87 29.96 0.0
14 08:15 SE 5 10.00 Fair CLR 80.2 74.3 82% 85 29.96 0.0
14 07:55 SE 5 10.00 Fair CLR 78.8 74.1 86% 82 29.95 0.0
14 07:35 SE 3 10.00 Fair CLR 77.2 73.6 89% 79 29.94 0.0
14 07:15 Calm 10.00 Fair CLR 75.9 73 91% 76 29.94 0.0
14 06:55 Calm 7.00 Fair CLR 75 72 80.6 75 90% 74 29.93 0.0
14 06:35 Calm 7.00 Fair CLR 75.2 72.5 91% 74 29.93 0.0
14 06:15 Calm 7.00 Fair CLR 75.4 72.5 91% 75 29.93 0.0
14 05:55 SE 3 5.00 Fog/Mist CLR 76.3 72.9 89% 77 29.92 0.0
14 05:35 Calm 7.00 Fair CLR 76.3 73 90% 77 29.92 0.0
14 05:15 Calm 5.00 Fog/Mist CLR 76.3 72.9 89% 77 29.91 0.0
14 04:55 Calm 5.00 Fog/Mist SCT017 SCT080 77 73.2 88% 78 29.91 0.0
14 04:35 SE 3 7.00 Partly Cloudy SCT015 SCT080 77.4 73.4 88% 79 29.91 0.0
14 04:15 SE 3 7.00 Partly Cloudy SCT013 SCT080 77.4 73.4 88% 79 29.91 0.0
14 03:55 SE 3 5.00 Fog/Mist CLR 77.2 73.4 88% 79 29.91 0.0
14 03:35 Calm 5.00 Partly Cloudy with Haze SCT013 77.7 73.4 87% 80 29.91 0.0
14 03:15 S 3 5.00 Fair with Haze CLR 78.1 73.4 86% 81 29.92 0.0
14 02:55 S 3 7.00 Fair CLR 78.4 73.6 85% 81 29.91 0.0
14 02:35 S 6 7.00 Light Rain CLR 78.8 73.6 84% 82 29.91 0.0
14 02:15 S 6 7.00 Fair CLR 79.2 73.6 83% 83 29.92 0.0
14 01:55 S 5 7.00 Light Rain CLR 79.5 73.6 82% 83 29.92 0.0
14 01:35 SE 7 7.00 Rain CLR 79.7 73.6 82% 84 29.92 0.0
14 01:15 SE 6 7.00 Light Rain CLR 80.1 73.4 80% 84 29.93 0.0
14 00:55 SE 8 7.00 Rain CLR 80.6 73.4 98.4 80.6 79% 85 29.92 0.0
14 00:35 SE 7 10.00 Rain CLR 81 73.2 77% 86 29.93 0.0
14 00:15 SE 7 7.00 Rain CLR 81.5 72.9 75% 87 29.93 0.0
13 23:55 SE 8 7.00 Rain CLR 81.9 72.9 74% 87 29.93 0.0
13 23:35 SE 8 7.00 Fair CLR 82.6 72.7 72% 88 29.93 0.0
13 23:15 SE 9 7.00 Rain CLR 83.3 72.5 70% 89 29.92 0.0
13 22:55 SE 10 7.00 Light Rain CLR 83.8 72.3 68% 90 29.92 0.0
13 22:35 SE 8 7.00 Rain CLR 84.4 71.6 66% 90 29.91 0.0
13 22:15 SE 12 5.00 Fair with Haze CLR 85.1 71.6 64% 91 29.91 0.0
13 21:55 SE 12 G 17 7.00 Fair CLR 86 71.4 62% 92 29.9 0.0
13 21:35 SE 13 G 17 7.00 Rain CLR 87.4 71.4 59% 94 29.89 0.0
13 21:15 SE 12 7.00 Partly Cloudy SCT065 88.2 69.3 54% 93 29.89 0.0
13 20:55 SE 14 G 18 7.00 Rain SCT065 89.2 69.8 53% 94 29.88 0.0
13 20:35 E 15 G 22 7.00 Rain SCT065 SCT085 90.1 71.6 55% 97 29.87 0.0
13 20:15 SE 15 G 22 5.00 Overcast with Haze SCT070 OVC085 92.1 72 52% 100 29.86 0.0
13 19:55 SE 13 7.00 Mostly Cloudy SCT070 BKN085 BKN120 94.5 70.2 45% 101 29.85 0.0
13 19:35 SE 14 G 20 5.00 Partly Cloudy with Haze SCT070 SCT085 SCT120 95.2 69.8 44% 101 29.85 0.0
13 19:15 SE 12 5.00 Partly Cloudy with Haze SCT085 96.8 68.2 39% 102 29.84 0.0
13 18:55 E 9 5.00 Partly Cloudy with Haze SCT085 SCT120 98.8 67.1 101.8 92.5 36% 104 29.83 0.0
13 18:35 E 7 7.00 Partly Cloudy SCT070 SCT120 98.4 66.7 36% 103 29.83 0.0
13 18:15 SE 10 5.00 Partly Cloudy with Haze SCT070 SCT085 SCT100 98.6 67.3 36% 103 29.83 0.0
13 17:55 E 9 5.00 Partly Cloudy with Haze SCT075 SCT100 99.3 65.7 33% 103 29.83 0.0
13 17:35 E 6 5.00 Partly Cloudy with Haze SCT075 100 65.5 32% 104 29.83 0.0
13 17:15 E 6 5.00 Fair with Haze CLR 100 65.8 33% 104 29.84 0.0
13 16:55 SE 5 5.00 Partly Cloudy with Haze SCT075 SCT120 97.9 66.2 36% 102 29.85 0.0
13 16:35 SE 7 5.00 Partly Cloudy with Haze SCT075 99.7 66.6 34% 104 29.85 0.0
13 16:15 SE 10 5.00 Partly Cloudy with Haze SCT075 98.6 66.2 35% 103 29.86 0.0
13 15:55 SE 6 5.00 Partly Cloudy with Haze SCT065 SCT085 98.6 68 37% 104 29.87 0.0
13 15:35 SE 7 5.00 Partly Cloudy with Haze SCT065 97.9 67.6 37% 103 29.88 0.0
13 15:15 SE 5 7.00 Partly Cloudy SCT095 SCT120 97.7 68.9 39% 104 29.88 0.0
13 14:55 Calm 10.00 Overcast SCT055 BKN080 OVC120 95.2 68.5 42% 100 29.89 0.0
13 14:35 S 7 5.00 Mostly Cloudy with Haze BKN055 BKN075 95.9 68.4 41% 101 29.9 0.0
13 14:15 Calm 7.00 Mostly Cloudy BKN055 BKN075 BKN090 94.3 69.1 44% 100 29.9 0.0
13 13:55 SE 6 10.00 Partly Cloudy SCT055 SCT075 SCT090 95.5 69.8 43% 102 29.91 0.0
13 13:35 SE 6 10.00 Fair CLR 96.4 69.1 41% 102 29.92 0.0
13 13:15 SE 7 10.00 Partly Cloudy SCT080 SCT100 94.3 70.7 46% 101 29.93 0.0
13 12:55 SE 7 10.00 Partly Cloudy SCT090 92.1 69.4 92.5 75.7 48% 97 29.93 0.0
13 12:35 SE 3 10.00 Partly Cloudy SCT041 SCT070 SCT080 91.2 70.7 51% 98 29.94 0.0
13 12:15 S 3 10.00 Partly Cloudy SCT041 SCT080 SCT090 91.9 70.9 50% 99 29.94 0.0
13 11:55 SE 6 10.00 Partly Cloudy SCT090 SCT110 90.9 71.6 53% 98 29.95 0.0
13 11:35 SE 3 10.00 Partly Cloudy SCT033 SCT065 90 71.1 54% 96 29.95 0.0
13 11:15 SE 5 10.00 Overcast SCT031 OVC065 88 72.3 60% 95 29.95 0.0
13 10:55 SE 7 10.00 Mostly Cloudy SCT029 BKN065 88.2 73 61% 96 29.95 0.0
13 10:35 S 3 10.00 Partly Cloudy SCT026 SCT065 SCT085 87.3 72.9 62% 95 29.95 0.0
13 10:15 S 6 10.00 Mostly Cloudy SCT024 SCT065 BKN085 85.8 73.4 67% 93 29.95 0.0
13 09:55 SW 6 10.00 Mostly Cloudy SCT018 SCT024 BKN065 86 74.1 68% 94 29.95 0.0
13 09:35 S 6 10.00 Partly Cloudy SCT018 SCT080 84.4 74.7 73% 92 29.95 0.0
13 09:15 S 8 10.00 Partly Cloudy SCT013 SCT018 83.1 75.2 77% 91 29.95 0.0
13 08:55 S 7 10.00 Partly Cloudy SCT011 SCT070 SCT080 81.5 75.6 82% 88 29.94 0.0
13 08:35 S 5 10.00 Mostly Cloudy SCT070 SCT080 BKN100 79.9 75.2 86% 85 29.94 0.0
13 08:15 SE 5 10.00 Partly Cloudy SCT090 SCT110 78.8 75.2 89% 82 29.93 0.0
13 07:55 S 5 10.00 Partly Cloudy SCT090 78.3 74.8 89% 81 29.93 0.0
13 07:35 SE 5 10.00 Partly Cloudy SCT090 77.5 74.7 91% 79 29.92 0.0
13 07:15 Calm 10.00 Partly Cloudy SCT090 76.3 74.3 94% 76 29.91 0.0
13 06:55 SE 3 10.00 Fair CLR 75.7 73.6 80.6 75.6 93% 75 29.9 0.0
13 06:35 Calm 10.00 Fair CLR 76.1 73.4 91% 76 29.9 0.0
13 06:15 Calm 10.00 Fair CLR 76.1 73.6 92% 76 29.9 0.0
13 05:55 S 3 10.00 Partly Cloudy SCT090 76.1 73.6 92% 76 29.89 0.0
13 05:35 S 3 10.00 Fair CLR 76.3 73.6 91% 76 29.89 0.0
13 05:15 Calm 10.00 Partly Cloudy SCT090 76.6 73.8 91% 77 29.89 0.0
13 04:55 S 3 10.00 Partly Cloudy SCT100 76.8 73.8 90% 78 29.89 0.0
13 04:35 S 5 10.00 Partly Cloudy SCT090 77 73.6 89% 78 29.89 0.0
13 04:15 S 5 7.00 Rain CLR 77 73.4 89% 78 29.88 0.0
13 03:55 S 3 7.00 Rain CLR 77.4 73.4 88% 79 29.88 0.0
13 03:35 S 6 7.00 Fair CLR 77.9 73.4 86% 80 29.88 0.0
13 03:15 S 6 5.00 Fair with Haze CLR 78.1 73.4 86% 81 29.88 0.0
13 02:55 SE 6 7.00 Fair CLR 78.4 73.4 85% 81 29.89 0.0
13 02:35 SE 6 7.00 Rain CLR 78.8 73.4 84% 82 29.9 0.0
13 02:15 SE 6 7.00 Fair CLR 79.2 73.2 82% 83 29.9 0.0
13 01:55 SE 6 7.00 Rain CLR 79.2 72.9 81% 83 29.91 0.0
13 01:35 SE 6 5.00 Rain CLR 79.7 72.7 79% 84 29.91 0.0
13 01:15 SE 7 7.00 Fair CLR 80.2 72.5 77% 84 29.91 0.0
13 00:55 SE 6 7.00 Rain CLR 80.8 72.1 98.6 80.8 75% 85 29.91 0.0
13 00:35 SE 6 7.00 Rain CLR 81.1 72.1 74% 86 29.92 0.0
13 00:15 SE 8 7.00 Fair CLR 81.7 71.8 72% 86 29.92 0.0
12 23:55 SE 8 7.00 Fair CLR 82.4 71.6 70% 87 29.92 0.0
12 23:35 SE 7 7.00 Fair CLR 82.8 71.4 69% 88 29.92 0.0
12 23:15 SE 8 7.00 Rain CLR 83.3 71.1 67% 88 29.92 0.0
12 22:55 SE 8 7.00 Rain CLR 84.2 70.7 64% 89 29.91 0.0
12 22:35 SE 10 7.00 Rain CLR 84.6 70.7 63% 89 29.91 0.0
Date Time (cdt) Wind (mph) Vis. (mi.) Weather Sky Cond. Air Dwpt Max. Min. Relative Humidity Wind Chill (°F) Heat Index (°F) altimeter (in) sea level (mb) 1 hr 3 hr 6 hr
6 hour
Temperature (ºF) Pressure Precipitation (in)